Hilo, HI

11:06 PM HST on September 24, 2017 (GMT -1000)
Hilo International

Weather History for PHTO - November, 2014

Change the Weather History Date:

Sunday, November 23, 2014

  Actual Average Record
Temperature  
Mean Temperature 72 °F 74 °F  
Max Temperature 81 °F 80 °F 87 °F (2015)
Min Temperature 63 °F 67 °F 62 °F (1975)
Degree Days  
Heating Degree Days 0 0  
Month to date heating degree days 0 0  
Since 1 July heating degree days 0 0  
Cooling Degree Days 7 9  
Month to date cooling degree days 228 215  
Year to date cooling degree days 3354 2950  
Growing Degree Days 22 (Base 50)    
Moisture  
Dew Point 66 °F    
Average Humidity 84    
Maximum Humidity 100    
Minimum Humidity 67    
Precipitation  
Precipitation 0.00 in 0.51 in 1.99 in (1955)
Month to date precipitation 7.01 12.10  
Year to date precipitation 107.12 111.75  
Snow  
Snow 0.00 in - - ()
Month to date snowfall 0.0  
Since 1 July snowfall 0.0  
Since 1 September snowfall 0.0  
Snow Depth 0.00 in    
Sea Level Pressure  
Sea Level Pressure 29.97 in    
Wind  
Wind Speed 7 mph (South)    
Max Wind Speed 18 mph    
Max Gust Speed 22 mph    
Visibility 10 miles    
Events      
T = Trace of Precipitation, MM = Missing Value Source: NWS Daily Summary

Daily Weather History Graph

Daily Weather History Graph

Search for Another Location

Airport or City:

Trip Planner

Search our weather history database for the weather conditions in past years. The results will help you decide how hot, cold, wet, or windy it might be!

Date:

Astronomy

Nov. 23, 2014 Rise Set
Actual Time 6:33 AM HST 5:39 PM HST
Civil Twilight 6:10 AM HST 6:03 PM HST
Nautical Twilight 5:43 AM HST 6:30 PM HST
Astronomical Twilight 5:16 AM HST 6:56 PM HST
Moon 7:41 AM HST (11/23) 7:11 PM HST (11/23)
Length of Visible Light 11h 53m
Length of Day
11h 06m
New Moon, 2% of the Moon is Illuminated
Nov 23
New Moon
Nov 29
First Quarter
Dec 6
Full
Dec 14
Last Quarter
Dec 21
New

Hourly Weather History & Observations

Time (HST) Temp. Heat Index Dew Point Humidity Pressure Visibility Wind Dir Wind Speed Gust Speed Precip Events Conditions
12:53 AM 66.9 °F - 66.9 °F 100% 30.05 in 10.0 mi SW 5.8 mph - N/A   Scattered Clouds
1:53 AM 66.9 °F - 66.0 °F 97% 30.03 in 10.0 mi WSW 6.9 mph - N/A   Clear
2:53 AM 64.9 °F - 64.0 °F 97% 30.01 in 10.0 mi WSW 6.9 mph - N/A   Clear
3:53 AM 64.0 °F - 62.1 °F 93% 30.00 in 10.0 mi SW 6.9 mph - N/A   Clear
4:53 AM 63.0 °F - 60.1 °F 90% 29.99 in 10.0 mi WSW 8.1 mph - N/A   Partly Cloudy
5:53 AM 64.0 °F - 59.0 °F 84% 30.00 in 10.0 mi WSW 8.1 mph - N/A   Mostly Cloudy
6:53 AM 64.9 °F - 60.1 °F 84% 30.02 in 10.0 mi SSW 6.9 mph - N/A   Overcast
7:53 AM 69.1 °F - 63.0 °F 81% 30.03 in 10.0 mi WSW 6.9 mph - N/A   Scattered Clouds
8:53 AM 73.9 °F - 66.0 °F 76% 30.03 in 10.0 mi SW 4.6 mph - N/A   Scattered Clouds
9:53 AM 77.0 °F - 68.0 °F 74% 30.02 in 10.0 mi South 5.8 mph - N/A   Scattered Clouds
10:53 AM 79.0 °F - 66.9 °F 66% 29.99 in 10.0 mi SSE 6.9 mph - N/A   Partly Cloudy
11:53 AM 80.1 °F 82.7 °F 68.0 °F 67% 29.96 in 10.0 mi ESE 11.5 mph - N/A   Partly Cloudy
12:53 PM 80.1 °F 82.7 °F 68.0 °F 67% 29.93 in 10.0 mi SE 15.0 mph - N/A   Clear
1:53 PM 80.1 °F 82.7 °F 68.0 °F 67% 29.90 in 10.0 mi ESE 12.7 mph - N/A   Partly Cloudy
2:53 PM 80.1 °F 82.9 °F 69.1 °F 69% 29.89 in 10.0 mi ESE 12.7 mph 20.7 mph N/A   Partly Cloudy
3:53 PM 79.0 °F - 68.0 °F 69% 29.90 in 10.0 mi SE 12.7 mph - N/A   Partly Cloudy
4:53 PM 77.0 °F - 69.1 °F 76% 29.90 in 10.0 mi SE 9.2 mph - N/A   Clear
5:53 PM 75.0 °F - 70.0 °F 84% 29.92 in 10.0 mi SE 4.6 mph - N/A   Mostly Cloudy
6:53 PM 73.0 °F - 69.1 °F 87% 29.93 in 10.0 mi South 4.6 mph - N/A   Clear
7:53 PM 71.1 °F - 68.0 °F 90% 29.94 in 10.0 mi SSW 4.6 mph - N/A   Clear
8:53 PM 70.0 °F - 66.9 °F 90% 29.94 in 10.0 mi SSW 4.6 mph - N/A   Clear
9:53 PM 69.1 °F - 66.9 °F 93% 29.94 in 10.0 mi South 3.5 mph - N/A   Clear
10:27 PM 69.1 °F - 66.0 °F 90% 29.94 in 10.0 mi SSW 5.8 mph - N/A   Partly Cloudy
10:53 PM 68.0 °F - 64.9 °F 90% 29.93 in 10.0 mi SW 4.6 mph - N/A   Clear
11:53 PM 66.9 °F - 62.1 °F 84% 29.93 in 10.0 mi South 3.5 mph - N/A   Clear